sat.trackr.live / text

‹ back to catalog

STARLINK-33899

NORAD 63799 · 2025-091AA

PAYLOAD ACTIVE UNKNOWN

§ Identity

Operator
Country
US
Launch date
2025-05-02
Launch site
AFETR
Launch vehicle
Mass (kg)
RCS (m²)

Purposes: comms

External: N2YO · Heavens-Above · Gunter

§ Orbital elements

Epoch: 2026-09-20T02:06:38.128320Z

Period
94.27 min
Inclination
43.0030°
Eccentricity
0.0002100
Mean motion
15.27590346 rev/d
Perigee alt
481.6 km
Apogee alt
484.5 km
Semi-major
6,861.2 km
B*
3.8720e-4
RAAN
34.5975°
Arg perigee
267.9533°
Mean anomaly
92.1078°
Rev number
7,874

§ Raw data

STARLINK-338991 63799U 25091AA  26263.08794130  .00010411  00000+0  38720-3 0  99912 63799  43.0030  34.5975 0002100 267.9533  92.1078 15.27590346 78742

JSON: /api/v1/satellites/63799 · /tle

For live sub-satellite position, see the globe view (requires WebGL).

§ Visibility from observer

Set your observer location to see the next 7 days of passes ≥ 10°. The values pass through the URL so the page stays shareable.

No JS? Fill the form by hand. The geolocation button needs JavaScript.